TimeEDT,TemperatureF,Dew PointF,Humidity,Sea Level PressureIn,VisibilityMPH,Wind Direction,Wind SpeedMPH,Gust SpeedMPH,PrecipitationIn,Events,Conditions,WindDirDegrees,DateUTC
12:35 AM,57.9,57.9,100,30.14,10.0,NE,4.6,-,N/A,,Scattered Clouds,50,2012-10-09 04:35:00
12:55 AM,57.4,57.4,100,30.13,10.0,ENE,4.6,-,N/A,,Clear,70,2012-10-09 04:55:00
1:15 AM,56.8,56.8,100,30.13,10.0,Calm,Calm,-,N/A,,Clear,0,2012-10-09 05:15:00
1:35 AM,56.3,56.3,100,30.13,10.0,Calm,Calm,-,N/A,,Clear,0,2012-10-09 05:35:00
1:55 AM,55.0,55.0,100,30.13,7.0,Calm,Calm,-,N/A,,Clear,0,2012-10-09 05:55:00
2:15 AM,54.7,54.7,100,30.13,7.0,Calm,Calm,-,N/A,,Scattered Clouds,0,2012-10-09 06:15:00
2:55 AM,56.5,56.5,100,30.12,10.0,ENE,3.5,-,N/A,,Overcast,60,2012-10-09 06:55:00
3:15 AM,56.8,56.8,100,30.12,10.0,NE,3.5,-,N/A,,Overcast,50,2012-10-09 07:15:00
3:55 AM,56.5,56.5,100,30.12,10.0,NNE,5.8,-,N/A,,Overcast,20,2012-10-09 07:55:00
4:15 AM,56.3,56.3,100,30.11,10.0,NNE,8.1,-,N/A,,Overcast,30,2012-10-09 08:15:00
4:35 AM,56.3,56.3,100,30.12,10.0,NNE,3.5,-,N/A,,Overcast,20,2012-10-09 08:35:00
4:55 AM,55.9,55.9,100,30.12,10.0,NNE,6.9,-,N/A,,Overcast,30,2012-10-09 08:55:00
5:15 AM,55.9,55.9,100,30.12,10.0,NE,6.9,-,N/A,,Overcast,40,2012-10-09 09:15:00
5:35 AM,56.3,56.3,100,30.12,10.0,ENE,8.1,-,N/A,,Overcast,60,2012-10-09 09:35:00
5:55 AM,55.8,55.8,100,30.13,10.0,ENE,6.9,-,N/A,,Overcast,70,2012-10-09 09:55:00
6:15 AM,55.9,55.9,100,30.14,10.0,NNE,4.6,-,N/A,,Overcast,20,2012-10-09 10:15:00
6:35 AM,55.8,55.8,100,30.14,10.0,NNE,6.9,-,N/A,,Overcast,20,2012-10-09 10:35:00
6:55 AM,55.6,55.6,100,30.15,10.0,ENE,6.9,-,N/A,,Overcast,60,2012-10-09 10:55:00
7:15 AM,55.8,55.8,100,30.15,10.0,ENE,6.9,-,N/A,,Overcast,60,2012-10-09 11:15:00
7:35 AM,55.9,55.9,100,30.16,10.0,NNE,3.5,-,N/A,,Overcast,30,2012-10-09 11:35:00
7:55 AM,55.8,55.8,100,30.16,10.0,NE,9.2,-,N/A,,Overcast,40,2012-10-09 11:55:00
8:15 AM,56.1,56.1,100,30.16,10.0,ENE,5.8,-,N/A,,Overcast,60,2012-10-09 12:15:00
8:35 AM,56.1,56.1,100,30.17,10.0,NNE,5.8,-,N/A,,Overcast,30,2012-10-09 12:35:00
8:55 AM,56.1,56.1,100,30.18,10.0,East,6.9,-,N/A,,Overcast,80,2012-10-09 12:55:00
9:15 AM,55.9,55.9,100,30.18,10.0,ENE,6.9,-,N/A,,Overcast,70,2012-10-09 13:15:00
9:35 AM,56.7,56.7,100,30.18,10.0,NE,6.9,-,N/A,,Overcast,50,2012-10-09 13:35:00
9:55 AM,57.6,57.0,98,30.18,10.0,NE,6.9,-,N/A,,Overcast,50,2012-10-09 13:55:00
10:15 AM,58.1,56.3,94,30.18,10.0,East,3.5,-,N/A,,Overcast,90,2012-10-09 14:15:00
10:35 AM,58.8,53.8,83,30.18,10.0,ENE,3.5,-,N/A,,Overcast,60,2012-10-09 14:35:00
10:55 AM,59.4,54.0,82,30.18,10.0,Calm,Calm,-,N/A,,Overcast,0,2012-10-09 14:55:00
11:15 AM,60.6,53.8,78,30.18,10.0,NE,3.5,-,N/A,,Overcast,50,2012-10-09 15:15:00
11:35 AM,61.3,53.6,76,30.18,10.0,NNE,3.5,-,N/A,,Overcast,30,2012-10-09 15:35:00
11:55 AM,61.7,53.2,74,30.18,10.0,Calm,Calm,-,N/A,,Overcast,0,2012-10-09 15:55:00
12:15 PM,63.5,53.6,70,30.18,10.0,NE,5.8,-,N/A,,Overcast,40,2012-10-09 16:15:00
12:35 PM,64.2,53.4,68,30.17,10.0,Calm,Calm,-,N/A,,Overcast,0,2012-10-09 16:35:00
12:55 PM,64.9,53.4,66,30.15,10.0,Calm,Calm,-,N/A,,Overcast,0,2012-10-09 16:55:00
1:15 PM,66.7,53.6,63,30.15,10.0,NW,3.5,-,N/A,,Scattered Clouds,310,2012-10-09 17:15:00
1:35 PM,68.2,54.1,61,30.14,10.0,SE,3.5,-,N/A,,Scattered Clouds,140,2012-10-09 17:35:00
1:55 PM,69.4,53.8,57,30.13,10.0,Calm,Calm,-,N/A,,Scattered Clouds,0,2012-10-09 17:55:00
2:15 PM,69.3,54.1,59,30.12,10.0,Calm,Calm,-,N/A,,Mostly Cloudy,0,2012-10-09 18:15:00
2:35 PM,71.6,54.9,55,30.11,10.0,Calm,Calm,-,N/A,,Mostly Cloudy,0,2012-10-09 18:35:00
2:55 PM,71.1,54.5,56,30.10,10.0,Calm,Calm,-,N/A,,Scattered Clouds,0,2012-10-09 18:55:00
3:15 PM,73.0,55.2,53,30.10,10.0,North,3.5,-,N/A,,Mostly Cloudy,350,2012-10-09 19:15:00
3:35 PM,73.2,55.0,53,30.10,10.0,NNE,3.5,-,N/A,,Scattered Clouds,30,2012-10-09 19:35:00
3:55 PM,72.0,54.7,54,30.10,10.0,Calm,Calm,-,N/A,,Clear,0,2012-10-09 19:55:00
4:15 PM,72.3,55.2,55,30.09,10.0,WNW,3.5,-,N/A,,Clear,300,2012-10-09 20:15:00
4:35 PM,73.2,55.2,53,30.09,10.0,Calm,Calm,-,N/A,,Mostly Cloudy,0,2012-10-09 20:35:00
4:55 PM,74.3,55.0,51,30.08,10.0,North,3.5,-,N/A,,Overcast,10,2012-10-09 20:55:00
5:15 PM,73.4,55.0,52,30.08,10.0,NW,3.5,-,N/A,,Overcast,310,2012-10-09 21:15:00
5:35 PM,72.0,57.0,59,30.09,10.0,Calm,Calm,-,N/A,,Scattered Clouds,0,2012-10-09 21:35:00
5:55 PM,71.6,58.1,62,30.08,10.0,Calm,Calm,-,N/A,,Mostly Cloudy,0,2012-10-09 21:55:00
6:15 PM,72.1,55.6,56,30.08,10.0,Calm,Calm,-,N/A,,Overcast,0,2012-10-09 22:15:00
6:35 PM,70.3,58.1,65,30.09,10.0,Calm,Calm,-,N/A,,Overcast,0,2012-10-09 22:35:00
6:55 PM,69.6,58.6,68,30.09,10.0,Calm,Calm,-,N/A,,Overcast,0,2012-10-09 22:55:00
7:15 PM,68.2,58.6,71,30.09,10.0,South,4.6,-,N/A,,Overcast,170,2012-10-09 23:15:00
7:35 PM,66.4,59.4,78,30.09,10.0,Calm,Calm,-,N/A,,Scattered Clouds,0,2012-10-09 23:35:00
7:55 PM,65.1,60.1,84,30.09,10.0,Calm,Calm,-,N/A,,Mostly Cloudy,0,2012-10-09 23:55:00
8:15 PM,64.4,64.4,100,30.10,10.0,Calm,Calm,-,N/A,,Mostly Cloudy,0,2012-10-10 00:15:00
8:35 PM,63.3,63.3,100,30.10,10.0,South,3.5,-,N/A,,Scattered Clouds,190,2012-10-10 00:35:00
8:55 PM,61.2,61.2,100,30.10,10.0,South,3.5,-,N/A,,Clear,180,2012-10-10 00:55:00
9:15 PM,61.0,61.0,100,30.10,10.0,South,3.5,-,N/A,,Clear,170,2012-10-10 01:15:00
9:35 PM,60.4,60.4,100,30.11,10.0,Calm,Calm,-,N/A,,Clear,0,2012-10-10 01:35:00
9:55 PM,59.9,59.9,100,30.12,7.0,Calm,Calm,-,N/A,,Clear,0,2012-10-10 01:55:00
10:15 PM,58.5,58.5,100,30.12,2.5,Calm,Calm,-,N/A,,Clear,0,2012-10-10 02:15:00
10:35 PM,57.6,57.6,100,30.13,0.8,Calm,Calm,-,N/A,,Mist,0,2012-10-10 02:35:00
10:55 PM,57.4,57.4,100,30.13,0.5,Calm,Calm,-,N/A,Fog,Fog,0,2012-10-10 02:55:00
11:15 PM,57.6,57.6,100,30.13,0.2,Calm,Calm,-,N/A,Fog,Fog,0,2012-10-10 03:15:00
11:35 PM,55.2,55.2,100,30.14,0.2,Calm,Calm,-,N/A,Fog,Fog,0,2012-10-10 03:35:00
11:55 PM,56.5,56.5,100,30.14,5.0,Calm,Calm,-,N/A,,Scattered Clouds,0,2012-10-10 03:55:00